SCP
0 0 0 0 0 0 0 0 0 1 1 1 0 0 0 1 1 1 0 1 0 0 0 0 0 0 0 0 0 0 0 0 0 0 0 0 0 0 0 0 0 0 0
1 0 0 0 0 0 0 0 0 0 0 0 0 0 0 1 0 0 0 0 1 0 0 0 0 0 0 0 1 1 0 0 0 0 0 0 0 0 0 0 0 0 0
0 0 0 0 0 0 0 0 0 0 0 0 0 0 0 0 0 0 0 0 0 1 1 1 1 0 0 1 1 1 1 1 0 0 0 0 0 0 0 0 0 0 0
0 0 0 0 0 0 0 0 0 0 0 0 0 0 0 0 0 0 0 0 0 0 1 2 2 1 1 1 1 1 1 1 1 0 0 0 0 0 0 0 0 0 0
0 0 0 0 0 0 0 0 0 0 0 0 0 0 0 1 0 0 0 0 1 1 1 2 3 2 2 2 2 2 2 1 1 1 0 0 0 0 0 1 0 0 0
0 1 0 0 0 0 0 0 0 0 0 0 0 0 0 0 0 0 0 1 1 2 2 4 2 4 5 4 4 3 2 2 1 1 1 1 1 1 1 1 0 0 0
0 1 0 0 0 0 1 0 0 0 0 0 0 0 0 0 0 0 0 0 2 1 6 4 4 4 4 4 3 3 2 2 1 1 1 1 1 1 1 1 0 0 0
0 0 1 1 1 0 1 1 1 0 0 0 0 0 0 0 0 0 0 2 2 2 1 3 3 3 4 4 3 2 2 1 1 1 1 1 0 0 0 0 0 0 0
0 0 0 0 0 0 0 1 1 0 0 0 0 0 0 0 0 0 1 1 2 2 1 2 3 2 3 3 2 2 2 1 1 0 0 0 0 0 0 0 0 0 0
0 0 0 0 0 0 0 0 0 0 1 0 0 0 0 0 0 0 1 1 1 2 1 2 3 2 2 4 2 1 1 1 0 0 0 0 0 0 0 0 0 0 0
0 0 0 0 0 0 0 0 0 0 0 1 1 0 0 0 0 0 0 0 1 1 1 2 2 2 2 3 3 1 0 0 0 0 0 0 0 0 0 0 0 0 0
0 0 0 0 0 0 0 0 0 0 0 0 0 1 0 0 0 0 0 0 0 1 0 0 0 1 1 1 0 0 0 0 0 0 0 0 0 0 0 0 0 0 0
0 0 0 0 0 0 0 0 0 0 0 0 0 0 0 0 0 1 1 0 0 0 0 0 0 0 0 0 0 0 0 0 0 0 0 0 0 0 0 0 0 0 0
0 0 0 0 0 0 0 0 0 0 0 0 0 0 0 1 0 0 0 0 0 0 0 0 0 0 0 0 0 0 0 0 0 0 0 0 0 0 0 0 0 0 0
0 0 0 0 0 0 0 0 0 0 0 0 0 0 0 0 0 -0 0 0 0 0 0 0 0 0 0 0 0 0 0 0 0 0 0 0 0 0 0 0 0 0 0
0 0 0 0 0 0 0 0 0 0 0 0 0 0 0 0 1 0 0 0 0 0 0 0 0 0 0 0 0 0 0 0 0 0 0 0 0 0 0 0 0 0 0
0 0 0 0 0 0 0 0 0 0 0 0 0 0 0 0 0 0 0 0 0 0 0 0 0 0 0 0 0 0 0 0 0 0 0 0 0 0 0 0 0 0 0
0 0 0 0 0 0 0 0 -0 0 0 0 0 0 0 0 0 0 0 0 0 0 0 0 0 0 0 0 -0 0 0 0 0 0 0 0 0 0 0 0 0 0 0
0 0 0 0 0 0 0 0 -0 -0 -0 0 0 0 0 0 0 0 0 0 0 0 0 0 0 0 0 0 0 0 0 0 0 0 0 0 0 0 0 0 0 0 0
0 0 0 0 0 0 0 0 0 0 0 0 0 0 0 0 0 0 0 0 0 0 0 0 0 0 0 0 0 0 0 0 0 0 0 0 0 0 0 0 0 0 0
0 0 0 0 0 0 0 0 -0 -0 0 0 0 0 0 0 0 0 0 0 0 0 0 0 0 0 0 0 0 0 0 0 0 0 0 0 0 0 0 0 0 0 0
0 0 0 0 0 0 0 -0 0 -0 0 0 0 0 0 0 0 0 0 0 0 0 0 0 0 0 0 0 0 0 0 0 0 0 0 0 0 0 0 0 0 0 0
0 0 0 0 0 0 -0 -0 -0 -0 0 0 0 0 0 0 0 0 0 0 0 0 0 0 0 0 0 0 0 0 0 0 0 0 0 0 0 0 0 0 -0 -0 -0
0 0 0 0 0 -0 -0 -0 -0 -0 0 0 0 0 0 0 0 0 0 0 0 0 0 0 0 0 0 0 -0 0 -0 0 0 0 0 0 -0 -0 0 0 -0 -0 -0
0 0 0 0 -0 -0 -0 -0 -0 0 0 0 0 0 0 0 0 0 0 0 0 -0 0 0 0 0 0 -0 -0 0 0 0 0 0 -0 -0 0 0 0 -0 0 -0 -0
0 0 0 0 0 0 -0 -0 0 0 0 0 0 0 0 0 0 0 0 0 0 -0 -0 0 0 0 -0 0 0 0 -0 0 0 0 -0 -0 -0 -0 -0 -0 0 0 0
Wind_Speed_500mb
21 21 22 24 25 26 27 30 27 33 27 35 41 40 36 30 34 27 33 40 40 38 34 28 29 32 34 29 26 29 30 28 28 28 22 19 17 19 18 20 23 23 23
23 22 24 27 29 28 28 31 32 31 31 31 34 33 35 33 31 33 35 33 33 33 33 34 31 30 34 34 30 29 28 27 28 27 26 25 24 22 24 25 25 23 31
24 23 24 28 30 25 32 32 32 32 32 31 31 30 31 30 33 33 34 33 33 32 33 39 40 33 33 36 32 32 28 24 25 25 25 26 26 23 23 23 25 28 30
29 29 30 32 31 35 33 35 34 34 33 40 33 36 34 33 28 29 33 32 31 27 26 33 37 42 33 36 36 38 34 28 24 23 24 24 22 22 21 24 25 26 28
33 36 33 34 35 39 39 40 36 30 33 32 42 34 35 30 31 28 34 33 27 33 27 33 32 38 42 38 40 40 39 32 25 24 23 21 20 22 23 23 23 21 16
38 35 34 39 35 42 47 51 41 39 48 45 43 45 48 36 24 34 33 32 37 33 23 27 26 27 38 38 44 42 39 34 27 26 25 24 24 23 22 21 18 18 19
51 29 34 39 43 49 48 46 50 44 44 40 42 40 44 44 45 36 30 36 35 22 50 33 31 21 26 35 37 38 38 32 28 26 23 22 21 20 17 15 15 14 15
33 33 38 41 45 46 52 54 57 54 58 49 44 46 47 48 50 42 39 41 34 32 12 23 28 31 25 31 34 32 29 25 25 24 19 18 14 12 18 17 15 17 17
39 43 44 51 50 49 53 55 52 50 57 47 42 46 42 46 49 33 44 43 33 32 20 26 21 27 37 30 28 29 26 25 20 16 16 19 18 18 17 17 20 19 21
55 59 67 57 54 55 59 58 60 59 61 68 53 58 38 43 48 51 25 21 22 22 22 16 17 25 31 35 30 38 33 25 19 17 20 18 16 15 15 14 17 20 23
63 53 52 53 48 47 52 48 50 56 62 57 59 64 53 48 42 42 52 35 25 31 21 14 13 17 26 35 39 38 28 17 15 14 14 12 11 10 11 14 17 20 22
45 43 42 49 55 61 59 58 51 54 51 55 58 60 67 39 42 48 37 46 43 31 37 29 15 19 27 45 47 36 20 17 16 12 8 8 9 10 12 13 16 17 18
48 47 52 55 53 49 42 40 47 54 61 56 56 63 61 64 52 37 29 30 31 31 37 48 36 23 31 35 29 34 28 17 10 3 8 11 10 11 12 11 11 12 17
43 44 44 46 44 43 43 44 41 45 50 58 58 62 67 65 64 43 23 23 16 29 31 26 30 54 23 25 30 33 30 19 5 7 10 10 6 7 8 11 13 16 20
44 42 47 49 50 45 45 47 45 46 49 53 49 52 60 56 53 55 28 23 15 7 18 21 21 37 53 32 30 27 19 15 10 6 8 4 2 4 6 10 14 16 19
46 52 54 59 57 56 55 49 43 40 41 42 39 40 46 51 54 20 21 18 16 14 15 10 15 39 22 12 10 13 14 12 9 6 4 1 3 3 5 9 12 16 19
51 57 61 71 57 58 50 41 39 38 36 40 30 31 34 40 40 42 16 15 15 19 18 10 2 40 39 31 30 25 20 15 14 10 7 5 6 8 10 13 16 17 17
52 60 65 55 52 44 38 33 32 32 31 26 26 25 17 25 39 35 23 22 26 18 16 18 19 14 27 31 25 25 18 12 13 9 9 11 11 12 13 16 19 20 17
62 60 50 46 43 38 33 32 24 31 26 24 32 26 16 15 18 18 22 21 21 23 25 23 27 25 18 23 26 35 20 13 10 9 11 12 13 13 14 17 24 25 21
54 50 45 44 38 36 31 25 26 22 22 20 24 35 30 26 15 15 13 17 22 27 34 31 31 39 33 35 34 32 23 14 15 5 8 12 17 17 21 23 28 31 28
46 45 40 40 35 32 29 22 20 19 22 17 19 25 37 33 24 20 15 13 19 25 33 33 33 37 38 39 38 34 28 35 26 20 12 19 25 22 15 19 28 34 31
46 42 38 37 35 28 23 17 24 17 14 17 16 16 23 33 31 28 23 16 9 17 27 30 37 32 41 43 43 36 31 28 23 15 12 14 15 8 8 23 29 29 27
50 39 36 29 30 19 15 13 18 20 14 15 15 20 22 17 20 16 18 16 13 14 21 26 26 30 38 45 40 38 25 18 15 14 15 16 12 13 9 25 33 31 31
40 33 19 30 23 17 17 13 13 13 14 14 16 17 20 17 20 16 16 15 12 8 13 16 24 19 18 32 31 27 21 30 15 16 17 15 15 9 6 20 35 32 35
38 29 23 21 14 16 15 14 17 13 14 15 20 19 19 18 18 18 17 16 15 15 14 18 19 21 19 8 25 36 30 32 21 15 18 16 12 9 12 16 25 30 36
38 25 23 12 11 15 12 21 19 16 17 18 19 21 25 16 20 21 14 11 10 15 19 25 25 28 19 29 32 25 20 19 18 26 24 20 12 10 15 13 14 24 29
Wind_Direction_500mb
325 334 324 327 317 310 305 304 302 299 290 281 283 280 284 274 266 261 264 272 279 281 268 262 261 258 248 248 249 242 245 245 246 249 259 263 268 267 267 265 264 269 269
319 327 322 318 320 312 309 304 297 303 299 293 291 292 278 273 262 258 256 266 272 285 273 266 263 258 246 243 240 241 241 240 243 246 251 258 268 269 265 263 265 274 281
322 319 317 321 317 314 317 308 300 296 292 290 286 285 277 271 264 256 258 257 266 271 276 269 259 259 252 239 236 232 233 240 244 243 249 261 267 266 260 257 259 257 253
313 312 311 309 310 318 311 306 300 299 290 299 291 301 291 284 271 267 265 266 257 258 265 270 267 250 248 240 241 236 236 238 243 247 256 259 258 257 256 251 252 257 252
303 301 301 302 304 301 301 304 303 301 308 306 288 287 300 284 282 279 273 261 257 254 248 258 260 254 240 235 237 236 237 244 241 246 250 247 256 260 254 252 254 260 230
298 294 292 298 296 296 297 292 307 295 305 287 289 276 289 279 294 286 278 259 245 232 236 244 252 241 231 233 233 230 233 237 235 238 243 255 253 249 248 244 236 222 222
275 281 294 293 290 291 292 292 291 296 285 285 283 282 280 277 268 263 276 277 268 240 224 226 228 215 223 221 223 222 223 224 225 236 236 233 233 232 222 201 197 216 244
292 303 296 297 293 286 280 279 281 277 278 275 276 286 291 278 265 259 256 251 250 263 278 238 219 204 201 205 208 209 204 209 215 217 217 215 208 191 190 197 219 238 245
301 303 297 297 292 291 287 281 279 275 277 269 272 273 286 283 283 291 235 246 273 253 263 242 210 215 200 190 182 179 169 176 200 197 190 170 177 189 205 213 226 248 260
293 289 298 290 288 285 282 280 280 273 268 265 262 260 265 264 277 282 265 205 242 238 248 238 235 232 200 176 174 161 167 158 160 180 187 201 211 212 219 231 246 263 271
296 292 289 290 285 276 272 276 275 271 269 266 254 260 258 262 260 257 265 262 250 242 238 230 218 227 214 188 171 171 176 175 170 171 173 189 220 246 252 266 280 291 292
296 296 291 282 285 287 284 274 274 265 266 262 257 250 250 269 261 248 252 264 261 251 248 245 233 244 171 169 183 166 164 162 159 162 173 216 234 260 275 290 301 299 301
296 293 290 294 295 295 295 297 283 276 265 265 258 254 252 248 242 243 241 252 263 253 260 259 254 262 213 191 178 169 166 161 168 239 282 262 275 276 286 300 320 321 318
292 296 296 292 289 290 288 284 288 286 271 260 264 254 241 243 249 243 228 235 255 264 251 240 244 248 203 209 189 183 166 163 194 288 316 290 269 291 316 326 325 328 327
291 295 289 291 292 286 288 288 287 287 279 266 265 255 245 239 253 227 222 231 233 251 283 244 205 218 207 212 187 161 151 162 197 254 303 306 328 324 330 334 334 338 339
292 291 287 294 290 290 287 283 286 288 279 267 265 258 241 237 223 255 205 205 214 198 245 302 213 191 169 135 157 178 179 159 155 127 101 25 343 349 353 7 359 356 347
293 295 297 299 293 288 287 277 277 281 290 264 262 241 223 214 215 235 212 196 217 205 207 258 217 163 185 172 168 157 152 159 149 131 105 73 57 47 39 24 6 354 350
296 298 296 297 298 294 286 267 271 275 283 270 257 244 196 213 216 221 239 225 217 210 208 180 143 167 145 148 137 142 139 148 134 115 89 82 78 78 57 32 16 6 349
305 306 301 299 297 294 286 262 275 277 271 271 236 226 236 192 204 209 210 221 217 223 225 200 181 191 184 146 151 154 163 147 124 125 106 83 82 70 53 35 28 15 8
308 310 305 298 294 289 283 263 254 267 264 258 236 220 221 210 205 222 227 232 238 218 222 221 195 192 193 175 175 169 154 123 112 132 99 80 85 57 29 35 25 15 6
303 309 309 308 292 278 276 256 260 259 252 251 236 220 215 221 218 206 202 239 231 216 218 204 193 190 196 185 183 174 156 156 173 144 144 113 89 61 39 13 17 14 7
317 301 295 310 301 274 264 240 257 246 229 234 222 207 199 205 213 224 223 231 219 212 208 201 196 191 197 188 189 188 184 179 170 195 158 132 121 139 40 25 21 16 14
322 320 303 293 304 249 245 247 223 219 217 202 201 199 190 210 191 208 208 200 190 196 203 197 192 189 195 198 199 199 198 193 201 180 170 140 100 69 18 31 26 30 32
331 327 312 317 303 224 226 209 202 196 210 203 196 179 165 181 175 172 180 176 175 179 204 200 187 180 206 202 202 204 183 191 207 162 153 113 118 128 53 355 13 32 34
341 336 312 300 262 206 224 200 186 195 176 175 182 170 163 156 181 165 163 160 165 174 189 173 172 174 193 190 180 190 201 201 174 164 152 140 140 134 74 19 7 27 32
346 332 316 329 173 189 200 182 173 169 162 160 158 171 164 170 161 156 132 131 145 170 160 154 129 134 119 137 170 196 197 214 193 159 160 150 146 145 80 60 36 24 20
Wind_Speed_850mb
21 21 22 24 25 26 27 30 27 33 27 35 41 40 36 30 34 27 33 40 40 38 34 28 29 32 34 29 26 29 30 28 28 28 22 19 17 19 18 20 23 23 23
23 22 24 27 29 28 28 31 32 31 31 31 34 33 35 33 31 33 35 33 33 33 33 34 31 30 34 34 30 29 28 27 28 27 26 25 24 22 24 25 25 23 31
24 23 24 28 30 25 32 32 32 32 32 31 31 30 31 30 33 33 34 33 33 32 33 39 40 33 33 36 32 32 28 24 25 25 25 26 26 23 23 23 25 28 30
29 29 30 32 31 35 33 35 34 34 33 40 33 36 34 33 28 29 33 32 31 27 26 33 37 42 33 36 36 38 34 28 24 23 24 24 22 22 21 24 25 26 28
33 36 33 34 35 39 39 40 36 30 33 32 42 34 35 30 31 28 34 33 27 33 27 33 32 38 42 38 40 40 39 32 25 24 23 21 20 22 23 23 23 21 16
38 35 34 39 35 42 47 51 41 39 48 45 43 45 48 36 24 34 33 32 37 33 23 27 26 27 38 38 44 42 39 34 27 26 25 24 24 23 22 21 18 18 19
51 29 34 39 43 49 48 46 50 44 44 40 42 40 44 44 45 36 30 36 35 22 50 33 31 21 26 35 37 38 38 32 28 26 23 22 21 20 17 15 15 14 15
33 33 38 41 45 46 52 54 57 54 58 49 44 46 47 48 50 42 39 41 34 32 12 23 28 31 25 31 34 32 29 25 25 24 19 18 14 12 18 17 15 17 17
39 43 44 51 50 49 53 55 52 50 57 47 42 46 42 46 49 33 44 43 33 32 20 26 21 27 37 30 28 29 26 25 20 16 16 19 18 18 17 17 20 19 21
55 59 67 57 54 55 59 58 60 59 61 68 53 58 38 43 48 51 25 21 22 22 22 16 17 25 31 35 30 38 33 25 19 17 20 18 16 15 15 14 17 20 23
63 53 52 53 48 47 52 48 50 56 62 57 59 64 53 48 42 42 52 35 25 31 21 14 13 17 26 35 39 38 28 17 15 14 14 12 11 10 11 14 17 20 22
45 43 42 49 55 61 59 58 51 54 51 55 58 60 67 39 42 48 37 46 43 31 37 29 15 19 27 45 47 36 20 17 16 12 8 8 9 10 12 13 16 17 18
48 47 52 55 53 49 42 40 47 54 61 56 56 63 61 64 52 37 29 30 31 31 37 48 36 23 31 35 29 34 28 17 10 3 8 11 10 11 12 11 11 12 17
43 44 44 46 44 43 43 44 41 45 50 58 58 62 67 65 64 43 23 23 16 29 31 26 30 54 23 25 30 33 30 19 5 7 10 10 6 7 8 11 13 16 20
44 42 47 49 50 45 45 47 45 46 49 53 49 52 60 56 53 55 28 23 15 7 18 21 21 37 53 32 30 27 19 15 10 6 8 4 2 4 6 10 14 16 19
46 52 54 59 57 56 55 49 43 40 41 42 39 40 46 51 54 20 21 18 16 14 15 10 15 39 22 12 10 13 14 12 9 6 4 1 3 3 5 9 12 16 19
51 57 61 71 57 58 50 41 39 38 36 40 30 31 34 40 40 42 16 15 15 19 18 10 2 40 39 31 30 25 20 15 14 10 7 5 6 8 10 13 16 17 17
52 60 65 55 52 44 38 33 32 32 31 26 26 25 17 25 39 35 23 22 26 18 16 18 19 14 27 31 25 25 18 12 13 9 9 11 11 12 13 16 19 20 17
62 60 50 46 43 38 33 32 24 31 26 24 32 26 16 15 18 18 22 21 21 23 25 23 27 25 18 23 26 35 20 13 10 9 11 12 13 13 14 17 24 25 21
54 50 45 44 38 36 31 25 26 22 22 20 24 35 30 26 15 15 13 17 22 27 34 31 31 39 33 35 34 32 23 14 15 5 8 12 17 17 21 23 28 31 28
46 45 40 40 35 32 29 22 20 19 22 17 19 25 37 33 24 20 15 13 19 25 33 33 33 37 38 39 38 34 28 35 26 20 12 19 25 22 15 19 28 34 31
46 42 38 37 35 28 23 17 24 17 14 17 16 16 23 33 31 28 23 16 9 17 27 30 37 32 41 43 43 36 31 28 23 15 12 14 15 8 8 23 29 29 27
50 39 36 29 30 19 15 13 18 20 14 15 15 20 22 17 20 16 18 16 13 14 21 26 26 30 38 45 40 38 25 18 15 14 15 16 12 13 9 25 33 31 31
40 33 19 30 23 17 17 13 13 13 14 14 16 17 20 17 20 16 16 15 12 8 13 16 24 19 18 32 31 27 21 30 15 16 17 15 15 9 6 20 35 32 35
38 29 23 21 14 16 15 14 17 13 14 15 20 19 19 18 18 18 17 16 15 15 14 18 19 21 19 8 25 36 30 32 21 15 18 16 12 9 12 16 25 30 36
38 25 23 12 11 15 12 21 19 16 17 18 19 21 25 16 20 21 14 11 10 15 19 25 25 28 19 29 32 25 20 19 18 26 24 20 12 10 15 13 14 24 29
Wind_Direction_850mb
325 334 324 327 317 310 305 304 302 299 290 281 283 280 284 274 266 261 264 272 279 281 268 262 261 258 248 248 249 242 245 245 246 249 259 263 268 267 267 265 264 269 269
319 327 322 318 320 312 309 304 297 303 299 293 291 292 278 273 262 258 256 266 272 285 273 266 263 258 246 243 240 241 241 240 243 246 251 258 268 269 265 263 265 274 281
322 319 317 321 317 314 317 308 300 296 292 290 286 285 277 271 264 256 258 257 266 271 276 269 259 259 252 239 236 232 233 240 244 243 249 261 267 266 260 257 259 257 253
313 312 311 309 310 318 311 306 300 299 290 299 291 301 291 284 271 267 265 266 257 258 265 270 267 250 248 240 241 236 236 238 243 247 256 259 258 257 256 251 252 257 252
303 301 301 302 304 301 301 304 303 301 308 306 288 287 300 284 282 279 273 261 257 254 248 258 260 254 240 235 237 236 237 244 241 246 250 247 256 260 254 252 254 260 230
298 294 292 298 296 296 297 292 307 295 305 287 289 276 289 279 294 286 278 259 245 232 236 244 252 241 231 233 233 230 233 237 235 238 243 255 253 249 248 244 236 222 222
275 281 294 293 290 291 292 292 291 296 285 285 283 282 280 277 268 263 276 277 268 240 224 226 228 215 223 221 223 222 223 224 225 236 236 233 233 232 222 201 197 216 244
292 303 296 297 293 286 280 279 281 277 278 275 276 286 291 278 265 259 256 251 250 263 278 238 219 204 201 205 208 209 204 209 215 217 217 215 208 191 190 197 219 238 245
301 303 297 297 292 291 287 281 279 275 277 269 272 273 286 283 283 291 235 246 273 253 263 242 210 215 200 190 182 179 169 176 200 197 190 170 177 189 205 213 226 248 260
293 289 298 290 288 285 282 280 280 273 268 265 262 260 265 264 277 282 265 205 242 238 248 238 235 232 200 176 174 161 167 158 160 180 187 201 211 212 219 231 246 263 271
296 292 289 290 285 276 272 276 275 271 269 266 254 260 258 262 260 257 265 262 250 242 238 230 218 227 214 188 171 171 176 175 170 171 173 189 220 246 252 266 280 291 292
296 296 291 282 285 287 284 274 274 265 266 262 257 250 250 269 261 248 252 264 261 251 248 245 233 244 171 169 183 166 164 162 159 162 173 216 234 260 275 290 301 299 301
296 293 290 294 295 295 295 297 283 276 265 265 258 254 252 248 242 243 241 252 263 253 260 259 254 262 213 191 178 169 166 161 168 239 282 262 275 276 286 300 320 321 318
292 296 296 292 289 290 288 284 288 286 271 260 264 254 241 243 249 243 228 235 255 264 251 240 244 248 203 209 189 183 166 163 194 288 316 290 269 291 316 326 325 328 327
291 295 289 291 292 286 288 288 287 287 279 266 265 255 245 239 253 227 222 231 233 251 283 244 205 218 207 212 187 161 151 162 197 254 303 306 328 324 330 334 334 338 339
292 291 287 294 290 290 287 283 286 288 279 267 265 258 241 237 223 255 205 205 214 198 245 302 213 191 169 135 157 178 179 159 155 127 101 25 343 349 353 7 359 356 347
293 295 297 299 293 288 287 277 277 281 290 264 262 241 223 214 215 235 212 196 217 205 207 258 217 163 185 172 168 157 152 159 149 131 105 73 57 47 39 24 6 354 350
296 298 296 297 298 294 286 267 271 275 283 270 257 244 196 213 216 221 239 225 217 210 208 180 143 167 145 148 137 142 139 148 134 115 89 82 78 78 57 32 16 6 349
305 306 301 299 297 294 286 262 275 277 271 271 236 226 236 192 204 209 210 221 217 223 225 200 181 191 184 146 151 154 163 147 124 125 106 83 82 70 53 35 28 15 8
308 310 305 298 294 289 283 263 254 267 264 258 236 220 221 210 205 222 227 232 238 218 222 221 195 192 193 175 175 169 154 123 112 132 99 80 85 57 29 35 25 15 6
303 309 309 308 292 278 276 256 260 259 252 251 236 220 215 221 218 206 202 239 231 216 218 204 193 190 196 185 183 174 156 156 173 144 144 113 89 61 39 13 17 14 7
317 301 295 310 301 274 264 240 257 246 229 234 222 207 199 205 213 224 223 231 219 212 208 201 196 191 197 188 189 188 184 179 170 195 158 132 121 139 40 25 21 16 14
322 320 303 293 304 249 245 247 223 219 217 202 201 199 190 210 191 208 208 200 190 196 203 197 192 189 195 198 199 199 198 193 201 180 170 140 100 69 18 31 26 30 32
331 327 312 317 303 224 226 209 202 196 210 203 196 179 165 181 175 172 180 176 175 179 204 200 187 180 206 202 202 204 183 191 207 162 153 113 118 128 53 355 13 32 34
341 336 312 300 262 206 224 200 186 195 176 175 182 170 163 156 181 165 163 160 165 174 189 173 172 174 193 190 180 190 201 201 174 164 152 140 140 134 74 19 7 27 32
346 332 316 329 173 189 200 182 173 169 162 160 158 171 164 170 161 156 132 131 145 170 160 154 129 134 119 137 170 196 197 214 193 159 160 150 146 145 80 60 36 24 20